Location: Unspecified
(0.0000°N, 0.0000°E)
Time: 05:35:13
(UTC+00:00)

Explorer 7 - Pass Details

Date: 08 October 2020
Orbit: 484 x 678 km, 50.3° (Epoch: 28 October)

Event Time Altitude Azimuth Distance (km) Brightness Sun altitude
Rises 17:07:17 0° 188° (S) 2,541 10.4 10.0°
Reaches altitude 10° 17:10:12 10° 163° (SSE) 1,663 9.2 9.2°
Maximum altitude 17:12:23 15° 127° (SE) 1,394 8.5 8.7°
Drops below altitude 10° 17:14:36 10° 91° (E) 1,683 8.7 8.1°
Sets 17:17:34 0° 67° (ENE) 2,589 9.6 7.4°
